User: anonymous   Login
Location: *
(2.5500°S, 65.9667°W)
Time: 09:08:05
(UTC+00:00)
Language:

Cosmos 1447 Rocket - Orbit

View from above orbital plane
View from above orbital plane
View from above satellite
View from above satellite

Ground track
Ground track

The orbit data is extracted from the following two-line orbital elements,

1 13917U 83021B   22019.55216661  .00000013  00000-0 -18459-5 0  9998
2 13917  82.9417  80.5030 0027463 234.6551 235.1193 13.76887521950149
Epoch (UTC): 19 January 2022 13:15:07
Eccentricity: 0.0027463
inclination: 82.9417°
perigee height: 955 km
apogee height: 995 km
right ascension of ascending node: 80.5030°
argument of perigee: 234.6551°
revolutions per day: 13.76887521
mean anomaly at epoch: 235.1193°
orbit number at epoch: 95014

The dashed part of the orbit path shows where the satellite is in the earth's shadow,  

DLR